星链-5358 (STARLINK-5358 )

导读

STARLINK-5358是美国太空探索技术公司星链星座的一员,于2023年6月23日发射入轨。星链项目旨在构建全球卫星互联网星座,为全球提供高速低延迟宽带服务。该卫星加入后进一步扩充了星链星座规模,提升星座覆盖能力与服务稳定性,推动全球卫星通信网络建设。

基本信息
目录编号:
57143
目录名称:
STARLINK-5358
国际标识:
2023-090AU
轨道中心:
EARTH
卫星名称:
星链-5358
卫星全名:
星链-5358 (STARLINK-5358 )
卫星状态:
在轨 (已飞行1176 天)
发射日期:
2023-06-23 UTC
国别 :
美国 (US)
星等 :
--
该卫星已列入 空间交会检测服务 Space Conjunction Data Service (SCDS) ,当前飞行风险评估等级: 高风险
轨道信息
数据来源 国际轨道数据 AOE轨道数据
星历时间 2026-09-11T12:16:22+0800
11小时前
查看轨道信息
2026-09-06T07:00:00+0800
5天前
查看轨道信息
半长轴 6861.179km 6861.229km
偏心率 0.0002049 0.0002158
轨道倾角 43.005° 43.004°
近地点辐角 280.889° 247.132°
升交点赤经 295.611° 325.091°
平近点角 79.173° 174.599°
近地点 481.636km 481.611km
远地点 484.448km 484.573km
周期 94.267分钟 94.268分钟
每日圈数 15.275827 15.275658
详细信息
固有亮度:
5
最大亮度:
2.4
卫星平台:
Starlink v1.5
覆盖范围:
全球
运营商:
太空探索技术公司
运营商所在国:
美国
制造商(研发单位):
太空探索技术公司
制造商所在国:
美国
使用方式:
暂无
卫星简介
星链(Starlink)计划是由太空探索技术公司(SpaceX)提出的一个巨型低轨卫星互联网星座项目,计划在2019年至2024年间在太空搭建由约1.2万颗卫星组成的“星链”网络,其中1584颗将部署在地球上空550千米处的近地轨道,并从2020年开始工作。该卫星仍在工作。
2D轨道图
3D轨道图
轨道高度分析图
轨道倾角分析图
轨道综合分析图
查看轨道综合分析图
交会数据列表
事件ID 空间交会对象 最接近时刻(TCA) 交会距离 交会风险概率(CRP) 交会风险指数(CRI) 操作
CDM_260913-012505-714306-250321
2026-09-13T
01:25:34+0000
0.360 km
远距离
1.547194E-4 高风险 0.79
CDM_260913-011805-714305-873521
2026-09-13T
01:18:49+0000
0.540 km
远距离
7.536924E-5 中风险 0.73
CDM_260911-051605-714305-879122
2026-09-11T
05:16:21+0000
0.676 km
远距离
6.200438E-5 中风险 0.71
CDM_260911-223405-639905-714322
2026-09-11T
22:34:41+0000
0.697 km
远距离
4.955099E-5 中风险 0.69
CDM_260912-182105-714306-250321
2026-09-12T
18:21:52+0000
0.680 km
远距离
2.777714E-5 中风险 0.64
CDM_260913-051405-714305-873521
2026-09-13T
05:14:12+0000
0.849 km
远距离
1.862389E-5 中风险 0.6
CDM_260911-201005-714305-879122
2026-09-11T
20:10:48+0000
1.084 km
极远距离
1.312753E-5 中风险 0.57
CDM_260912-091005-714305-848121
2026-09-12T
09:10:48+0000
1.203 km
极远距离
1.061119E-5 中风险 0.56
CDM_260911-034205-714305-879122
2026-09-11T
03:42:12+0000
1.311 km
极远距离
6.807639E-6 低风险 0.52
CDM_260913-150205-599005-714321
2026-09-13T
15:02:43+0000
1.463 km
极远距离
5.643993E-6 低风险 0.5
与全量物体交会距离演化趋势
与全量物体交会风险概率演化趋势